This demonstration page uses our WeatherBlox Daily Observations layout. Learn more.

38.89511, -77.03637

Hourly Observations for September 14, 2017

Temp ( °F °C ) Dew Point ( °F °C ) Humidity (%) Winds ( mph kmh ) Pressure ( in mb ) Visibility ( mi km ) Precip ( " mm )
12:52 am 00:52 Mostly Clear 70 21.1 66 18.9 87 87 SSW 6 9 29.85 1011 10 16.09344 0 0
1:52 am 01:52 Clear 69 20.6 67 19.4 93 93 SSW 3 6 29.85 1011 10 16.09344 0 0
2:52 am 02:52 Cloudy 70 21.1 67 19.4 90 90 S 9 15 29.85 1011 10 16.09344 0 0
3:52 am 03:52 Cloudy with Light Rain 70 21.1 67 19.4 90 90 S 8 13 29.85 1011 10 16.09344 0.001 0.001
4:52 am 04:52 Cloudy with Light Rain 70 21.1 68 20 93 93 S 7 11 29.85 1011 10 16.09344 0.001 0.001
5:52 am 05:52 Mostly Cloudy 70 21.1 68 20 93 93 S 9 15 29.85 1011 10 16.09344 0.001 0.001
6:52 am 06:52 Mostly Cloudy 70 21.1 68 20 93 93 SSW 8 13 29.85 1011 10 16.09344 0 0
7:52 am 07:52 Mostly Cloudy 71 21.7 68 20 90 90 SSW 5 7 29.88 1012 10 16.09344 0 0
8:41 am 08:41 Mostly Cloudy 72 22.2 68 20 87 87 SW 5 7 29.91 1013 10 16.09344 0 0
8:52 am 08:52 Mostly Cloudy 71 21.7 68 20 90 90 SSW 5 7 29.88 1012 10 16.09344 0 0
9:52 am 09:52 Mostly Cloudy 74 23.3 68 20 82 82 WSW 7 11 29.91 1013 10 16.09344 0 0
10:16 am 10:16 Mostly Cloudy 74 23.3 67 19.4 79 79 WSW 7 11 29.94 1014 10 16.09344 0 0
10:52 am 10:52 Partly Cloudy 76 24.4 67 19.4 74 74 N 6 9 29.91 1013 10 16.09344 0 0
11:52 am 11:52 Partly Cloudy 78 25.6 65 18.3 64 64 W 8 13 29.91 1013 10 16.09344 0 0
12:52 pm 12:52 Mostly Cloudy 80 26.7 65 18.3 60 60 WSW 7 11 29.88 1012 10 16.09344 0 0
1:52 pm 13:52 Mostly Cloudy 80 26.7 64 17.8 58 58 SSW 3 6 29.88 1012 10 16.09344 0.001 0.001
2:52 pm 14:52 Mostly Cloudy 82 27.8 64 17.8 55 55 WSW 8 13 29.88 1012 10 16.09344 0 0
3:52 pm 15:52 Mostly Cloudy 80 26.7 66 18.9 62 62 S 6 9 29.85 1011 10 16.09344 0 0
4:52 pm 16:52 Mostly Cloudy 79 26.1 66 18.9 65 65 SW 12 19 29.85 1011 10 16.09344 0 0
5:52 pm 17:52 Mostly Cloudy 79 26.1 65 18.3 62 62 SSW 5 7 29.88 1012 10 16.09344 0 0
6:52 pm 18:52 Mostly Cloudy 79 26.1 64 17.8 60 60 Calm 29.88 1012 10 16.09344 0 0
7:52 pm 19:52 Cloudy 76 24.4 68 20 77 77 Calm 29.91 1013 10 16.09344 0 0
8:52 pm 20:52 Mostly Cloudy 77 25 65 18.3 66 66 NW 5 7 29.94 1014 10 16.09344 0 0
9:52 pm 21:52 Cloudy 76 24.4 68 20 77 77 NE 6 9 29.94 1014 10 16.09344 0 0
10:52 pm 22:52 Cloudy 72 22.2 67 19.4 84 84 NNW 12 19 29.97 1015 10 16.09344 0 0
11:21 pm 23:21 Cloudy 72 22.2 68 20 87 87 NE 3 6 29.97 1015 10 16.09344 0 0
11:52 pm 23:52 Cloudy 72 22.2 68 20 87 87 NNE 3 6 29.97 1015 10 16.09344 0 0

Powered by AerisWeather